Location: Atherton
(17.2661°S, 145.4859°E)
Time: 23:36:23
(UTC+10:00)

Vanguard 1 - Pass Details

Date: 26 June 2025
Orbit: 649 x 3822 km, 34.2° (Epoch: 17 July)

Event Time Altitude Azimuth Distance (km) Brightness Sun altitude
Rises 16:22:34 0° 315° (NW) 7,890 16.2 18.4°
Reaches altitude 10° 16:28:03 10° 318° (NW) 6,915 16.2 17.3°
Maximum altitude 16:50:52 65° 35° (NE) 3,419 13.0 12.6°
Drops below altitude 10° 17:05:41 10° 113° (ESE) 4,782 13.0 9.5°
Sets 17:08:39 0° 116° (ESE) 5,448 13.2 8.9°
